DW9372 Weather Reports


Display with metric or nautical units.
time (UTC)temp
F
wind
direction
speed
MPH
gust
MPH
rain 1hr
in
rain 24hr
in
rain mn
in
humidity
%
barometer
mb
20260508024507 37 244 0.0 0.0 0.00 0.00 0.00 87 1013.5
20260508024004 37 244 0.0 0.0 0.00 0.00 0.00 87 1013.2
20260508023500 37 244 0.0 0.0 0.00 0.00 0.00 86 1013.4
20260508022958 37 244 0.0 0.0 0.00 0.00 0.00 85 1013.2
20260508022453 38 244 0.0 0.0 0.00 0.00 0.00 84 1013.1
20260508021950 38 243 0.0 0.0 0.00 0.00 0.00 82 1013.2
20260508021446 38 244 0.0 0.0 0.00 0.00 0.00 81 1013.4
20260508020942 39 244 0.0 0.0 0.00 0.00 0.00 80 1013.3
20260508020440 39 244 0.0 0.0 0.00 0.00 0.00 80 1013.1
20260508015937 39 244 0.0 0.0 0.00 0.00 0.00 80 1013.3
20260508015435 38 244 0.0 0.0 0.00 0.00 0.00 79 1013.3
20260508014931 39 244 0.0 0.0 0.00 0.00 0.00 76 1013.2
20260508014428 40 244 0.0 0.0 0.00 0.00 0.00 76 1013.3
20260508013924 40 244 0.0 0.0 0.00 0.00 0.00 75 1013.1
20260508013420 41 244 0.0 0.0 0.00 0.00 0.00 74 1012.8
20260508012918 41 244 0.0 0.0 0.00 0.00 0.00 73 1013.1
20260508012415 42 244 0.0 0.0 0.00 0.00 0.00 71 1012.8
20260508011912 42 244 0.0 0.0 0.00 0.00 0.00 69 1012.8
20260508011410 43 243 0.0 0.0 0.00 0.00 0.00 67 1013.0
20260508010907 44 243 0.0 0.0 0.00 0.00 0.00 67 1012.8
20260508010404 45 245 0.0 0.0 0.00 0.00 0.00 56 1012.8
20260508005901 46 249 0.0 0.0 0.00 0.00 0.00 54 1012.8
20260508005358 47 251 0.0 0.0 0.00 0.00 0.00 51 1012.8
20260508004854 48 256 0.0 0.0 0.00 0.00 0.00 49 1012.4
20260508004350 49 253 0.0 0.0 0.00 0.00 0.00 46 1012.7
20260508003847 49 259 1.0 2.0 0.00 0.00 0.00 45 1012.7
20260508003344 50 293 1.0 4.0 0.00 0.00 0.00 45 1012.6
20260508002841 50 272 1.0 2.0 0.00 0.00 0.00 45 1012.7
20260508002338 50 313 1.0 2.0 0.00 0.00 0.00 44 1012.4
20260508001834 51 276 1.0 3.0 0.00 0.00 0.00 43 1012.5
20260508001330 51 311 4.0 7.0 0.00 0.00 0.00 41 1012.5
20260508000827 51 280 2.0 7.0 0.00 0.00 0.00 41 1012.3
20260508000323 52 286 2.0 7.0 0.00 0.00 0.00 40 1012.1
20260507235820 52 234 2.0 6.0 0.00 0.00 0.00 40 1012.2
20260507235317 53 304 3.0 7.0 0.00 0.00 0.00 41 1012.1
20260507234814 53 263 3.0 7.0 0.00 0.00 0.00 39 1011.9
20260507234311 53 252 2.0 9.0 0.00 0.00 0.00 39 1012.2
20260507233807 53 314 6.0 8.0 0.00 0.00 0.00 40 1012.0
20260507233305 53 281 4.0 9.0 0.00 0.00 0.00 40 1012.1
20260507232803 54 270 3.0 7.0 0.00 0.00 0.00 39 1012.3
20260507232259 54 250 3.0 10.0 0.00 0.00 0.00 41 1011.9
20260507231756 53 214 3.0 6.0 0.00 0.00 0.00 44 1011.9
20260507231253 53 288 5.0 8.0 0.00 0.00 0.00 45 1012.0
20260507230749 53 304 5.0 7.0 0.00 0.00 0.00 44 1011.9
20260507230247 54 293 4.0 11.0 0.00 0.00 0.00 43 1012.1
20260507225746 55 263 2.0 8.0 0.00 0.00 0.00 44 1011.8
20260507225243 55 287 5.0 7.0 0.00 0.00 0.00 43 1012.1
20260507224738 55 293 5.0 10.0 0.00 0.00 0.00 43 1012.1
20260507224235 55 295 3.0 9.0 0.00 0.00 0.00 45 1012.2
20260507223732 55 327 9.0 11.0 0.00 0.00 0.00 48 1012.1
20260507223228 55 291 6.0 7.0 0.00 0.00 0.00 51 1012.1
20260507222725 53 152 7.0 9.0 0.00 0.00 0.00 50 1012.0
20260507222222 53 264 4.0 7.0 0.00 0.00 0.00 51 1012.0
20260507221719 53 307 7.0 13.0 0.00 0.00 0.00 50 1012.0
20260507221215 53 310 7.0 11.0 0.00 0.00 0.00 52 1012.2
20260507220711 53 298 3.0 7.0 0.00 0.00 0.00 50 1012.0
20260507220210 54 283 2.0 7.0 0.00 0.00 0.00 50 1011.9
20260507215705 55 299 3.0 13.0 0.00 0.00 0.00 49 1011.7
20260507215203 55 291 8.0 10.0 0.00 0.00 0.00 47 1011.9
20260507214700 55 300 6.0 11.0 0.00 0.00 0.00 49 1011.6
20260507214156 54 330 3.0 8.0 0.00 0.00 0.00 50 1011.7
20260507213652 54 294 5.0 15.0 0.00 0.00 0.00 50 1011.5
20260507213150 55 348 9.0 13.0 0.00 0.00 0.00 48 1011.3
20260507212646 55 294 4.0 11.0 0.00 0.00 0.00 48 1011.2
20260507212143 55 316 2.0 6.0 0.00 0.00 0.00 47 1011.4
20260507211640 55 292 5.0 8.0 0.00 0.00 0.00 47 1011.2
20260507211135 55 269 6.0 7.0 0.00 0.00 0.00 46 1011.0
20260507210633 55 241 4.0 8.0 0.00 0.00 0.00 46 1011.1
20260507210129 55 329 4.0 7.0 0.00 0.00 0.00 48 1011.0
20260507205626 56 305 4.0 6.0 0.00 0.00 0.00 45 1011.0
20260507205123 57 294 6.0 9.0 0.00 0.00 0.00 45 1010.8
20260507204619 59 290 4.0 8.0 0.00 0.00 0.00 41 1010.7
20260507204117 59 261 3.0 10.0 0.00 0.00 0.00 43 1010.8
20260507203615 59 295 4.0 6.0 0.00 0.00 0.00 41 1010.8
20260507203112 58 220 1.0 6.0 0.00 0.00 0.00 42 1010.9
20260507202607 58 265 3.0 6.0 0.00 0.00 0.00 44 1010.9
20260507202104 56 323 2.0 4.0 0.00 0.00 0.00 44 1010.7
20260507201559 57 284 5.0 8.0 0.00 0.00 0.00 42 1010.9
20260507201056 57 251 3.0 6.0 0.00 0.00 0.00 44 1011.1
20260507200551 59 279 4.0 9.0 0.00 0.00 0.00 42 1011.0
20260507200048 60 268 4.0 8.0 0.00 0.00 0.00 42 1011.1
20260507195545 59 275 4.0 7.0 0.00 0.00 0.00 46 1011.1
20260507195042 57 287 7.0 8.0 0.00 0.00 0.00 45 1011.2
20260507194538 56 291 6.0 14.0 0.00 0.00 0.00 43 1011.4
20260507194035 56 336 6.0 9.0 0.00 0.00 0.00 48 1011.5
20260507193532 56 296 3.0 4.0 0.00 0.00 0.00 47 1011.2
20260507193029 56 331 4.0 7.0 0.00 0.00 0.00 46 1011.2
20260507192525 56 307 3.0 8.0 0.00 0.00 0.00 48 1011.1
20260507192022 57 315 6.0 8.0 0.00 0.00 0.00 46 1011.1
20260507191517 57 243 2.0 4.0 0.00 0.00 0.00 47 1011.3
20260507191014 56 328 7.0 9.0 0.00 0.00 0.00 47 1011.3
20260507190512 56 270 3.0 7.0 0.00 0.00 0.00 47 1011.4
20260507190011 56 328 4.0 10.0 0.00 0.00 0.00 50 1011.4
20260507185508 57 232 5.0 7.0 0.00 0.00 0.00 44 1010.9
20260507185004 57 244 2.0 6.0 0.00 0.00 0.00 45 1011.1
20260507184503 57 300 3.0 6.0 0.00 0.00 0.00 46 1011.2
20260507184001 57 311 5.0 7.0 0.00 0.00 0.00 45 1011.4
20260507183456 58 320 5.0 6.0 0.00 0.00 0.00 43 1011.2
20260507182954 58 291 2.0 7.0 0.00 0.00 0.00 39 1011.2
20260507182449 58 324 8.0 10.0 0.00 0.00 0.00 42 1011.1
20260507181945 58 337 6.0 8.0 0.00 0.00 0.00 42 1011.2
20260507181442 59 212 2.0 6.0 0.00 0.00 0.00 39 1011.3
20260507180939 60 212 0.0 7.0 0.00 0.00 0.00 38 1011.2
20260507180436 61 251 1.0 8.0 0.00 0.00 0.00 39 1010.9
20260507175932 61 263 3.0 8.0 0.00 0.00 0.00 37 1011.1
20260507175428 60 290 4.0 9.0 0.00 0.00 0.00 37 1011.2
20260507174926 59 264 3.0 7.0 0.00 0.00 0.00 38 1011.1
20260507174423 58 294 3.0 6.0 0.00 0.00 0.00 39 1011.4
20260507173921 59 219 3.0 7.0 0.00 0.00 0.00 38 1011.2
20260507173418 60 288 3.0 9.0 0.00 0.00 0.00 38 1011.3
20260507172914 60 204 3.0 4.0 0.00 0.00 0.00 38 1011.3
20260507172411 60 248 4.0 8.0 0.00 0.00 0.00 37 1011.3
20260507171907 60 226 6.0 11.0 0.00 0.00 0.00 37 1011.4
20260507171403 61 192 5.0 9.0 0.00 0.00 0.00 38 1011.6
20260507170901 61 249 3.0 8.0 0.00 0.00 0.00 39 1011.7
20260507170357 59 304 2.0 6.0 0.00 0.00 0.00 46 1011.5
20260507165853 58 276 2.0 8.0 0.00 0.00 0.00 46 1011.6
20260507165349 57 274 1.0 6.0 0.00 0.00 0.00 42 1011.5
20260507164845 57 250 5.0 7.0 0.00 0.00 0.00 38 1011.6
20260507164343 57 244 1.0 3.0 0.00 0.00 0.00 41 1011.8
20260507163840 56 239 2.0 4.0 0.00 0.00 0.00 40 1011.8
20260507163337 56 276 2.0 4.0 0.00 0.00 0.00 45 1011.7
20260507162834 57 232 5.0 7.0 0.00 0.00 0.00 41 1011.8
20260507162329 57 298 4.0 8.0 0.00 0.00 0.00 41 1011.7
20260507161826 59 309 2.0 7.0 0.00 0.00 0.00 39 1011.7
20260507161323 59 199 4.0 6.0 0.00 0.00 0.00 40 1011.9
20260507160820 57 251 2.0 4.0 0.00 0.00 0.00 42 1011.7
20260507160315 57 306 2.0 8.0 0.00 0.00 0.00 42 1011.9
20260507155812 57 269 2.0 8.0 0.00 0.00 0.00 46 1011.9
20260507155308 59 220 3.0 4.0 0.00 0.00 0.00 44 1012.2
20260507154804 58 264 2.0 3.0 0.00 0.00 0.00 41 1012.1
20260507154302 58 316 3.0 6.0 0.00 0.00 0.00 42 1012.1
20260507153758 57 251 2.0 4.0 0.00 0.00 0.00 45 1012.3
20260507153255 59 302 4.0 6.0 0.00 0.00 0.00 42 1012.2
20260507152751 58 252 3.0 4.0 0.00 0.00 0.00 46 1012.0
20260507152248 58 255 8.0 11.0 0.00 0.00 0.00 43 1012.1
20260507151743 58 249 0.0 3.0 0.00 0.00 0.00 50 1011.9
20260507151240 57 249 2.0 3.0 0.00 0.00 0.00 48 1012.2
20260507150737 55 288 4.0 7.0 0.00 0.00 0.00 50 1012.2
20260507150234 55 264 1.0 3.0 0.00 0.00 0.00 48 1012.1
20260507145730 55 241 4.0 8.0 0.00 0.00 0.00 46 1012.5
20260507145226 55 290 2.0 6.0 0.00 0.00 0.00 46 1012.4
20260507144724 56 306 3.0 6.0 0.00 0.00 0.00 48 1012.3
20260507144221 57 259 5.0 7.0 0.00 0.00 0.00 47 1012.4
20260507143718 56 265 2.0 4.0 0.00 0.00 0.00 47 1012.4
20260507143215 57 278 1.0 2.0 0.00 0.00 0.00 46 1012.2
20260507142711 57 269 4.0 7.0 0.00 0.00 0.00 41 1012.3
20260507142208 58 222 2.0 6.0 0.00 0.00 0.00 46 1012.3
20260507141703 57 262 3.0 4.0 0.00 0.00 0.00 48 1012.4
20260507141201 57 239 2.0 4.0 0.00 0.00 0.00 49 1012.3
20260507140657 57 242 1.0 4.0 0.00 0.00 0.00 50 1012.4
20260507140155 56 275 3.0 6.0 0.00 0.00 0.00 51 1012.6
20260507135652 56 333 2.0 3.0 0.00 0.00 0.00 53 1012.6
20260507135149 56 275 3.0 3.0 0.00 0.00 0.00 56 1013.0
20260507134645 55 214 0.0 3.0 0.00 0.00 0.00 53 1012.8
20260507134141 56 238 2.0 3.0 0.00 0.00 0.00 52 1012.8
20260507133637 55 200 2.0 3.0 0.00 0.00 0.00 54 1013.0
20260507133135 55 250 1.0 2.0 0.00 0.00 0.00 56 1012.8
20260507132632 54 277 2.0 2.0 0.00 0.00 0.00 57 1013.2
20260507132128 53 265 2.0 3.0 0.00 0.00 0.00 58 1013.0
20260507131625 53 205 1.0 3.0 0.00 0.00 0.00 61 1013.2
20260507131123 52 213 1.0 2.0 0.00 0.00 0.00 63 1013.0
20260507130619 51 235 1.0 2.0 0.00 0.00 0.00 65 1013.2
20260507130117 51 242 1.0 3.0 0.00 0.00 0.00 64 1013.1
20260507125616 52 329 1.0 2.0 0.00 0.00 0.00 66 1013.2
20260507125113 51 192 1.0 3.0 0.00 0.00 0.00 67 1013.2
20260507124609 50 274 2.0 3.0 0.00 0.00 0.00 70 1013.2
20260507124107 49 229 1.0 3.0 0.00 0.00 0.00 73 1013.3
20260507123605 49 244 1.0 3.0 0.00 0.00 0.00 76 1013.2
20260507123101 48 237 2.0 4.0 0.00 0.00 0.00 79 1012.8
20260507122556 48 239 2.0 2.0 0.00 0.00 0.00 88 1013.1
20260507122053 47 72 0.0 1.0 0.00 0.00 0.00 96 1013.2
20260507121548 46 225 0.0 0.0 0.00 0.00 0.00 99 1013.4
20260507121045 44 240 0.0 0.0 0.00 0.00 0.00 99 1013.2
20260507120541 42 242 0.0 0.0 0.00 0.00 0.00 98 1013.3
20260507120038 41 251 0.0 0.0 0.00 0.00 0.00 98 1013.4
20260507115534 41 254 0.0 0.0 0.00 0.00 0.00 98 1013.5
20260507115030 41 249 0.0 0.0 0.00 0.00 0.00 99 1013.4
20260507114526 40 249 0.0 0.0 0.00 0.00 0.00 98 1013.5
20260507114024 40 250 0.0 0.0 0.00 0.00 0.00 99 1013.3
20260507113521 40 249 0.0 0.0 0.00 0.00 0.00 99 1013.6
20260507113018 39 249 0.0 0.0 0.00 0.00 0.00 99 1013.3
20260507112516 38 250 0.0 0.0 0.00 0.00 0.00 98 1013.3
20260507112012 38 250 0.0 0.0 0.00 0.00 0.00 98 1013.1
20260507111510 38 250 0.0 0.0 0.00 0.00 0.00 98 1013.3
20260507111005 39 250 0.0 0.0 0.00 0.00 0.00 99 1013.1
20260507110502 38 253 0.0 0.0 0.00 0.00 0.00 99 1013.1
20260507105958 38 249 0.0 0.0 0.00 0.00 0.00 99 1013.0
20260507105455 37 247 0.0 0.0 0.00 0.00 0.00 99 1012.8
20260507104952 36 247 0.0 0.0 0.00 0.00 0.00 98 1013.0
20260507104449 36 248 0.0 0.0 0.00 0.00 0.00 98 1012.6
20260507103944 36 248 0.0 0.0 0.00 0.00 0.00 98 1012.7
20260507103442 36 248 0.0 0.0 0.00 0.00 0.00 98 1012.6
20260507102937 37 248 0.0 0.0 0.00 0.00 0.00 98 1012.6
20260507102435 37 249 0.0 0.0 0.00 0.00 0.00 98 1012.8
20260507101931 37 249 0.0 0.0 0.00 0.00 0.00 98 1012.8
20260507101426 37 249 0.0 0.0 0.00 0.00 0.00 98 1012.6
20260507100923 37 249 0.0 0.0 0.00 0.00 0.00 98 1012.6
20260507100420 37 249 0.0 0.0 0.00 0.00 0.00 98 1012.6
20260507095919 37 249 0.0 0.0 0.00 0.00 0.00 98 1012.2
20260507095415 37 249 0.0 0.0 0.00 0.00 0.00 98 1012.5
20260507094913 37 249 0.0 0.0 0.00 0.00 0.00 98 1012.4
20260507094408 37 249 0.0 0.0 0.00 0.00 0.00 98 1012.6
20260507093906 37 249 0.0 0.0 0.00 0.00 0.00 98 1012.7
20260507093404 37 250 0.0 0.0 0.00 0.00 0.00 98 1012.8
20260507092902 36 242 0.0 0.0 0.00 0.00 0.00 98 1013.0
20260507092358 36 242 0.0 0.0 0.00 0.00 0.00 98 1012.6
20260507091854 36 245 0.0 0.0 0.00 0.00 0.00 98 1013.0
20260507091351 36 245 0.0 0.0 0.00 0.00 0.00 98 1013.0
20260507090846 36 249 0.0 0.0 0.00 0.00 0.00 98 1012.8
20260507090343 36 250 0.0 0.0 0.00 0.00 0.00 98 1012.6
20260507085840 35 241 0.0 0.0 0.00 0.00 0.00 98 1012.6
20260507085337 36 238 0.0 0.0 0.00 0.00 0.00 98 1012.8
20260507084834 35 238 0.0 0.0 0.00 0.00 0.00 98 1012.6
20260507084330 34 246 0.0 0.0 0.00 0.00 0.00 98 1013.0
20260507083828 35 246 0.0 0.0 0.00 0.00 0.00 97 1013.0
20260507083324 35 246 0.0 0.0 0.00 0.00 0.00 98 1012.8
20260507082820 34 246 0.0 0.0 0.00 0.00 0.00 97 1013.2
20260507082316 35 246 0.0 0.0 0.00 0.00 0.00 97 1013.0
20260507081814 35 246 0.0 0.0 0.00 0.00 0.00 97 1013.0
20260507081309 35 246 0.0 0.0 0.00 0.00 0.00 97 1013.2
20260507080806 35 246 0.0 0.0 0.00 0.00 0.00 97 1013.2
20260507080303 36 246 0.0 0.0 0.00 0.00 0.00 97 1013.1
20260507075758 36 247 0.0 0.0 0.00 0.00 0.00 97 1013.2
20260507075254 35 247 0.0 0.0 0.00 0.00 0.00 97 1012.8
20260507074751 35 245 0.0 0.0 0.00 0.00 0.00 97 1013.2
20260507074249 35 245 0.0 0.0 0.00 0.00 0.00 96 1013.2
20260507073745 36 245 0.0 0.0 0.00 0.00 0.00 96 1013.0
20260507073242 36 245 0.0 0.0 0.00 0.00 0.00 96 1013.2
20260507072740 36 245 0.0 0.0 0.00 0.00 0.00 96 1013.0
20260507072237 36 246 0.0 0.0 0.00 0.00 0.00 96 1013.3
20260507071734 35 246 0.0 0.0 0.00 0.00 0.00 96 1012.8
20260507071230 36 247 0.0 0.0 0.00 0.00 0.00 96 1013.1
20260507070728 36 249 0.0 0.0 0.00 0.00 0.00 96 1013.3
20260507070224 37 249 0.0 0.0 0.00 0.00 0.00 95 1013.2
20260507065721 37 249 0.0 0.0 0.00 0.00 0.00 95 1013.3
20260507065218 37 249 0.0 0.0 0.00 0.00 0.00 95 1013.3
20260507064715 37 250 0.0 0.0 0.00 0.00 0.00 95 1013.3
20260507064215 37 250 0.0 0.0 0.00 0.00 0.00 95 1013.4
20260507063711 37 250 0.0 0.0 0.00 0.00 0.00 95 1013.4
20260507063207 37 245 0.0 0.0 0.00 0.00 0.00 94 1013.3
20260507062705 37 245 0.0 0.0 0.00 0.00 0.00 94 1013.4
20260507062202 37 242 0.0 0.0 0.00 0.00 0.00 93 1013.5
20260507061700 37 242 0.0 0.0 0.00 0.00 0.00 93 1013.5
20260507061158 38 242 0.0 0.0 0.00 0.00 0.00 93 1013.5
20260507060656 38 242 0.0 0.0 0.00 0.00 0.00 92 1013.6
20260507060152 39 242 0.0 0.0 0.00 0.00 0.00 92 1013.7
20260507055648 39 242 0.0 0.0 0.00 0.00 0.00 91 1013.8
20260507055144 39 242 0.0 0.0 0.00 0.00 0.00 91 1013.9
20260507054640 40 242 0.0 0.0 0.00 0.00 0.00 91 1013.8
20260507054137 40 242 0.0 0.0 0.00 0.00 0.00 91 1013.8
20260507053635 40 246 0.0 0.0 0.00 0.00 0.00 90 1013.9
20260507053132 41 246 0.0 0.0 0.00 0.00 0.00 90 1014.0
20260507052631 41 244 0.0 0.0 0.00 0.00 0.00 90 1013.8
20260507052126 41 249 0.0 0.0 0.00 0.00 0.00 89 1013.8
20260507051624 41 249 0.0 0.0 0.00 0.00 0.00 89 1014.0
20260507051121 41 245 0.0 0.0 0.00 0.00 0.00 88 1014.0
20260507050618 41 245 0.0 0.0 0.00 0.00 0.00 87 1013.9
20260507050115 41 251 0.0 0.0 0.00 0.00 0.00 87 1013.9
20260507045612 41 251 0.0 0.0 0.00 0.00 0.00 86 1013.8
20260507045108 41 253 0.0 0.0 0.00 0.00 0.00 86 1014.2
20260507044605 41 246 0.0 0.0 0.00 0.00 0.00 84 1014.2
20260507044102 41 246 0.0 0.0 0.00 0.00 0.00 82 1014.2
20260507043557 41 246 0.0 0.0 0.00 0.00 0.00 82 1014.1
20260507043055 42 250 0.0 0.0 0.00 0.00 0.00 83 1014.1
20260507042551 42 252 0.0 0.0 0.00 0.00 0.00 82 1014.1
20260507042046 41 238 0.0 0.0 0.00 0.00 0.00 82 1014.3
20260507041544 41 247 0.0 0.0 0.00 0.00 0.00 81 1014.4
20260507041041 41 245 0.0 0.0 0.00 0.00 0.00 80 1014.7
20260507040537 41 243 0.0 0.0 0.00 0.00 0.00 80 1014.5
20260507040033 41 248 0.0 0.0 0.00 0.00 0.00 79 1014.7
20260507035529 42 247 0.0 0.0 0.00 0.71 0.71 77 1014.5
20260507035026 42 248 0.0 0.0 0.00 0.71 0.71 76 1014.4
20260507034523 43 260 0.0 0.0 0.00 0.71 0.71 75 1014.4
20260507034021 43 241 0.0 0.0 0.00 0.71 0.71 75 1014.5
20260507033518 44 247 0.0 0.0 0.00 0.71 0.71 73 1014.6
20260507033015 44 249 0.0 0.0 0.00 0.71 0.71 72 1014.7
20260507032512 45 253 0.0 0.0 0.00 0.71 0.71 70 1014.5
20260507032009 45 264 0.0 0.0 0.00 0.71 0.71 67 1014.5
20260507031504 45 253 0.0 0.0 0.00 0.71 0.71 69 1014.4
20260507031002 45 247 0.0 0.0 0.00 0.71 0.71 67 1014.5
20260507030459 45 247 0.0 0.0 0.00 0.71 0.71 66 1014.5
20260507025956 45 247 0.0 0.0 0.00 0.71 0.71 66 1014.6
20260507025453 46 252 0.0 0.0 0.00 0.71 0.71 64 1014.4
20260507024951 46 247 0.0 1.0 0.00 0.71 0.71 65 1014.3